Time,TemperatureF,DewpointF,PressureIn,WindDirection,WindDirectionDegrees,WindSpeedMPH,WindSpeedGustMPH,Humidity,HourlyPrecipIn,Conditions,Clouds,dailyrainin,SoftwareType,DateUTC
2013-01-10 00:14:00,69.1,67.6,30.25,East,100,0.0,0.0,95,0.00,,,0.00,WeatherDisplay:10.37,2013-01-10 05:14:00,
2013-01-10 00:30:00,68.9,67.4,30.25,East,100,0.0,0.0,95,0.00,,,0.00,WeatherDisplay:10.37,2013-01-10 05:30:00,
2013-01-10 00:44:00,68.6,67.1,30.25,East,100,0.0,0.0,95,0.00,,,0.00,WeatherDisplay:10.37,2013-01-10 05:44:00,
2013-01-10 00:59:00,68.3,66.8,30.25,East,100,0.0,0.0,95,0.00,,,0.00,WeatherDisplay:10.37,2013-01-10 05:59:00,
2013-01-10 01:14:00,68.0,66.5,30.25,East,100,0.0,0.0,95,0.00,,,0.00,WeatherDisplay:10.37,2013-01-10 06:14:00,
2013-01-10 01:29:00,67.8,66.3,30.25,East,100,0.0,0.0,95,0.00,,,0.00,WeatherDisplay:10.37,2013-01-10 06:29:00,
2013-01-10 01:44:00,67.4,66.2,30.25,East,100,0.0,0.0,96,0.00,,,0.00,WeatherDisplay:10.37,2013-01-10 06:44:00,
2013-01-10 01:59:00,67.6,66.4,30.25,East,100,0.0,0.0,96,0.00,,,0.00,WeatherDisplay:10.37,2013-01-10 06:59:00,
2013-01-10 02:14:00,67.3,66.1,30.25,East,100,0.0,0.0,96,0.00,,,0.00,WeatherDisplay:10.37,2013-01-10 07:14:00,
2013-01-10 02:29:00,67.1,65.9,30.25,East,100,0.0,0.0,96,0.00,,,0.00,WeatherDisplay:10.37,2013-01-10 07:29:00,
2013-01-10 02:44:00,66.8,65.6,30.25,East,100,0.0,0.0,96,0.00,,,0.00,WeatherDisplay:10.37,2013-01-10 07:44:00,
2013-01-10 02:59:00,66.8,65.6,30.25,East,100,0.0,0.0,96,0.00,,,0.00,WeatherDisplay:10.37,2013-01-10 07:59:00,
2013-01-10 03:14:00,66.9,65.7,30.25,East,100,0.0,0.0,96,0.00,,,0.00,WeatherDisplay:10.37,2013-01-10 08:14:00,
2013-01-10 03:29:00,66.8,65.9,30.25,East,100,0.0,0.0,97,0.00,,,0.00,WeatherDisplay:10.37,2013-01-10 08:29:00,
2013-01-10 03:44:00,66.6,65.4,30.24,East,100,0.0,0.0,96,0.00,,,0.00,WeatherDisplay:10.37,2013-01-10 08:44:00,
2013-01-10 03:59:00,66.1,64.9,30.24,East,100,0.0,0.0,96,0.00,,,0.00,WeatherDisplay:10.37,2013-01-10 08:59:00,
2013-01-10 04:14:00,66.3,65.5,30.23,East,100,0.0,0.0,97,0.00,,,0.00,WeatherDisplay:10.37,2013-01-10 09:14:00,
2013-01-10 04:29:00,66.4,65.5,30.23,East,100,0.0,0.0,97,0.00,,,0.00,WeatherDisplay:10.37,2013-01-10 09:29:00,
2013-01-10 04:44:00,66.3,65.4,30.22,East,100,0.0,0.0,97,0.00,,,0.00,WeatherDisplay:10.37,2013-01-10 09:44:00,
2013-01-10 04:59:00,66.0,65.1,30.22,East,100,0.0,0.0,97,0.00,,,0.00,WeatherDisplay:10.37,2013-01-10 09:59:00,
2013-01-10 05:14:00,65.6,64.7,30.22,East,100,0.0,0.0,97,0.00,,,0.00,WeatherDisplay:10.37,2013-01-10 10:14:00,
2013-01-10 05:29:00,65.5,64.6,30.22,East,100,0.0,0.0,97,0.00,,,0.00,WeatherDisplay:10.37,2013-01-10 10:29:00,
2013-01-10 05:44:00,65.6,64.7,30.22,East,100,0.0,0.0,97,0.00,,,0.00,WeatherDisplay:10.37,2013-01-10 10:44:00,
2013-01-10 05:59:00,66.2,65.7,30.22,East,100,0.0,0.0,98,0.00,,,0.00,WeatherDisplay:10.37,2013-01-10 10:59:00,
2013-01-10 06:14:00,66.3,65.4,30.23,East,100,0.0,0.0,97,0.00,,,0.00,WeatherDisplay:10.37,2013-01-10 11:14:00,
2013-01-10 06:29:00,66.3,65.7,30.24,East,100,0.0,0.0,98,0.00,,,0.00,WeatherDisplay:10.37,2013-01-10 11:29:00,
2013-01-10 06:44:00,66.1,65.5,30.24,East,100,0.0,0.0,98,0.00,,,0.00,WeatherDisplay:10.37,2013-01-10 11:44:00,
2013-01-10 06:59:00,65.8,65.2,30.25,East,100,0.0,0.0,98,0.00,CLR,,0.00,WeatherDisplay:10.37,2013-01-10 11:59:00,
2013-01-10 07:14:00,65.2,64.4,30.25,East,100,0.0,0.0,97,0.01,RA,,0.01,WeatherDisplay:10.37,2013-01-10 12:14:00,
2013-01-10 07:29:00,64.8,64.2,30.25,East,100,0.0,0.0,98,0.00,CLR,,0.01,WeatherDisplay:10.37,2013-01-10 12:29:00,
2013-01-10 07:44:00,65.2,64.6,30.25,East,100,0.0,0.0,98,0.00,CLR,,0.01,WeatherDisplay:10.37,2013-01-10 12:44:00,
2013-01-10 07:59:00,65.2,64.6,30.25,East,100,0.0,0.0,98,0.00,CLR,,0.01,WeatherDisplay:10.37,2013-01-10 12:59:00,
2013-01-10 08:14:00,65.8,65.2,30.25,East,100,0.0,0.0,98,0.00,CLR,,0.01,WeatherDisplay:10.37,2013-01-10 13:14:00,
2013-01-10 08:29:00,67.4,67.1,30.26,East,100,0.0,0.0,99,0.00,CLR,,0.01,WeatherDisplay:10.37,2013-01-10 13:29:00,
2013-01-10 08:44:00,68.5,68.2,30.26,East,100,0.0,0.0,99,0.00,CLR,,0.01,WeatherDisplay:10.37,2013-01-10 13:44:00,
2013-01-10 08:59:00,69.6,69.3,30.26,East,100,0.0,0.0,99,0.00,CLR,,0.01,WeatherDisplay:10.37,2013-01-10 13:59:00,
2013-01-10 09:14:00,70.0,69.4,30.26,ENE,72,0.0,2.0,98,0.00,CLR,,0.01,WeatherDisplay:10.37,2013-01-10 14:14:00,
2013-01-10 09:29:00,70.6,69.7,30.26,North,360,0.0,4.0,97,0.00,CLR,,0.01,WeatherDisplay:10.37,2013-01-10 14:29:00,
2013-01-10 09:44:00,71.5,70.3,30.26,ESE,116,0.0,5.0,96,0.00,CLR,,0.01,WeatherDisplay:10.37,2013-01-10 14:44:00,
2013-01-10 09:59:00,73.1,70.3,30.26,East,83,1.0,6.0,91,0.00,CLR,,0.01,WeatherDisplay:10.37,2013-01-10 14:59:00,
2013-01-10 10:14:00,74.0,67.8,30.26,ESE,112,1.0,8.0,81,0.00,CLR,,0.01,WeatherDisplay:10.37,2013-01-10 15:14:00,
2013-01-10 10:29:00,75.6,65.9,30.25,ESE,107,5.0,10.0,72,0.00,CLR,,0.01,WeatherDisplay:10.37,2013-01-10 15:29:00,
2013-01-10 10:44:00,77.0,64.8,30.24,ESE,105,0.0,10.0,66,0.00,CLR,,0.01,WeatherDisplay:10.37,2013-01-10 15:44:00,
2013-01-10 10:59:00,78.5,64.4,30.23,ESE,106,2.0,12.0,62,0.00,CLR,,0.01,WeatherDisplay:10.37,2013-01-10 15:59:00,
2013-01-10 11:14:00,79.1,64.5,30.22,East,89,1.0,9.0,61,0.00,CLR,,0.01,WeatherDisplay:10.37,2013-01-10 16:14:00,
2013-01-10 11:29:00,79.5,62.9,30.21,ESE,102,5.0,10.0,57,0.00,CLR,,0.01,WeatherDisplay:10.37,2013-01-10 16:29:00,
2013-01-10 11:44:00,79.9,63.3,30.20,ESE,110,0.0,12.0,57,0.00,CLR,,0.01,WeatherDisplay:10.37,2013-01-10 16:44:00,
2013-01-10 11:59:00,79.6,62.0,30.20,ESE,106,3.0,12.0,55,0.00,CLR,,0.01,WeatherDisplay:10.37,2013-01-10 16:59:00,
2013-01-10 12:14:00,79.6,62.0,30.19,ESE,109,0.0,12.0,55,0.00,CLR,,0.01,WeatherDisplay:10.37,2013-01-10 17:14:00,
2013-01-10 12:29:00,82.2,62.8,30.18,NNE,29,1.0,5.0,52,0.00,CLR,,0.01,WeatherDisplay:10.37,2013-01-10 17:29:00,
2013-01-10 12:44:00,83.2,62.1,30.17,ENE,65,1.0,10.0,49,0.00,CLR,,0.01,WeatherDisplay:10.37,2013-01-10 17:44:00,
2013-01-10 12:59:00,83.0,63.0,30.17,NE,48,0.0,10.0,51,0.00,CLR,,0.01,WeatherDisplay:10.37,2013-01-10 17:59:00,
2013-01-10 13:14:00,81.9,62.5,30.18,East,87,3.0,10.0,52,0.00,CLR,,0.01,WeatherDisplay:10.37,2013-01-10 18:14:00,
2013-01-10 13:29:00,80.1,63.0,30.18,East,101,0.0,9.0,56,0.00,CLR,,0.01,WeatherDisplay:10.37,2013-01-10 18:29:00,
2013-01-10 13:44:00,81.2,63.5,30.17,East,83,0.0,9.0,55,0.00,CLR,,0.01,WeatherDisplay:10.37,2013-01-10 18:44:00,
2013-01-10 13:59:00,81.9,62.5,30.18,ENE,60,2.0,12.0,52,0.00,CLR,,0.01,WeatherDisplay:10.37,2013-01-10 18:59:00,
2013-01-10 14:14:00,83.0,63.0,30.17,ENE,64,0.0,6.0,51,0.00,CLR,,0.01,WeatherDisplay:10.37,2013-01-10 19:14:00,
2013-01-10 14:29:00,81.7,64.0,30.18,East,81,0.0,8.0,55,0.00,CLR,,0.01,WeatherDisplay:10.37,2013-01-10 19:29:00,
2013-01-10 14:44:00,82.0,64.2,30.18,East,82,2.0,9.0,55,0.00,CLR,,0.01,WeatherDisplay:10.37,2013-01-10 19:44:00,
2013-01-10 15:00:00,82.1,63.8,30.19,East,91,5.0,9.0,54,0.00,CLR,,0.01,WeatherDisplay:10.37,2013-01-10 20:00:00,
2013-01-10 15:14:00,80.5,63.8,30.18,ENE,59,0.0,9.0,57,0.00,CLR,,0.01,WeatherDisplay:10.37,2013-01-10 20:14:00,
2013-01-10 15:29:00,79.9,63.3,30.18,ESE,107,0.0,9.0,57,0.00,CLR,,0.01,WeatherDisplay:10.37,2013-01-10 20:29:00,
2013-01-10 15:44:00,79.4,65.2,30.19,East,94,0.0,10.0,62,0.00,CLR,,0.01,WeatherDisplay:10.37,2013-01-10 20:44:00,
2013-01-10 15:59:00,78.6,65.4,30.20,NE,42,2.0,8.0,64,0.00,CLR,,0.01,WeatherDisplay:10.37,2013-01-10 20:59:00,
2013-01-10 16:14:00,77.9,65.6,30.20,ESE,118,0.0,10.0,66,0.00,CLR,,0.01,WeatherDisplay:10.37,2013-01-10 21:14:00,
2013-01-10 16:44:00,76.8,65.9,30.20,NE,47,1.0,6.0,69,0.00,CLR,,0.01,WeatherDisplay:10.37,2013-01-10 21:44:00,
2013-01-10 16:59:00,76.2,65.7,30.20,East,98,0.0,7.0,70,0.00,CLR,,0.01,WeatherDisplay:10.37,2013-01-10 21:59:00,
2013-01-10 17:14:00,75.4,65.3,30.21,East,88,0.0,12.0,71,0.00,CLR,,0.01,WeatherDisplay:10.37,2013-01-10 22:14:00,
2013-01-10 17:29:00,75.1,65.5,30.21,East,96,0.0,6.0,72,0.00,CLR,,0.01,WeatherDisplay:10.37,2013-01-10 22:29:00,
2013-01-10 17:44:00,74.6,65.0,30.21,SE,124,0.0,8.0,72,0.00,CLR,,0.01,WeatherDisplay:10.37,2013-01-10 22:44:00,
2013-01-10 17:59:00,74.0,64.4,30.21,East,95,0.0,9.0,72,0.00,,,0.01,WeatherDisplay:10.37,2013-01-10 22:59:00,
2013-01-10 18:14:00,73.3,64.1,30.21,East,100,0.0,9.0,73,0.00,,,0.01,WeatherDisplay:10.37,2013-01-10 23:14:00,
2013-01-10 18:29:00,72.8,64.1,30.21,ESE,105,0.0,6.0,74,0.00,,,0.01,WeatherDisplay:10.37,2013-01-10 23:29:00,
2013-01-10 18:44:00,72.3,63.9,30.21,ESE,110,0.0,0.0,75,0.00,,,0.01,WeatherDisplay:10.37,2013-01-10 23:44:00,
2013-01-10 18:59:00,72.0,64.4,30.21,East,96,0.0,7.0,77,0.00,,,0.01,WeatherDisplay:10.37,2013-01-10 23:59:00,
2013-01-10 19:14:00,71.6,64.3,30.22,ESE,105,0.0,5.0,78,0.00,,,0.01,WeatherDisplay:10.37,2013-01-11 00:14:00,
2013-01-10 19:29:00,71.1,64.3,30.22,ESE,121,0.0,5.0,79,0.00,,,0.01,WeatherDisplay:10.37,2013-01-11 00:29:00,
2013-01-10 19:44:00,70.8,64.0,30.22,ESE,115,0.0,3.0,79,0.00,,,0.01,WeatherDisplay:10.37,2013-01-11 00:44:00,
2013-01-10 19:59:00,70.4,63.9,30.22,ESE,114,0.0,0.0,80,0.00,,,0.01,WeatherDisplay:10.37,2013-01-11 00:59:00,
2013-01-10 20:14:00,70.3,63.5,30.22,ESE,119,0.0,2.0,79,0.00,,,0.01,WeatherDisplay:10.37,2013-01-11 01:14:00,
2013-01-10 20:29:00,69.9,63.4,30.22,SE,126,0.0,6.0,80,0.00,,,0.01,WeatherDisplay:10.37,2013-01-11 01:29:00,
2013-01-10 20:44:00,69.6,63.5,30.22,SE,126,0.0,1.0,81,0.00,,,0.01,WeatherDisplay:10.37,2013-01-11 01:44:00,
2013-01-10 20:59:00,69.1,63.4,30.23,SE,126,0.0,0.0,82,0.00,,,0.01,WeatherDisplay:10.37,2013-01-11 01:59:00,
2013-01-10 21:14:00,68.6,63.6,30.23,SE,126,0.0,0.0,84,0.00,,,0.01,WeatherDisplay:10.37,2013-01-11 02:14:00,
2013-01-10 21:30:00,67.9,62.9,30.24,SE,126,0.0,0.0,84,0.00,,,0.01,WeatherDisplay:10.37,2013-01-11 02:30:00,
2013-01-10 21:44:00,67.8,63.1,30.24,SE,126,0.0,0.0,85,0.00,,,0.01,WeatherDisplay:10.37,2013-01-11 02:44:00,
2013-01-10 21:59:00,67.3,63.0,30.24,SE,126,0.0,0.0,86,0.00,,,0.01,WeatherDisplay:10.37,2013-01-11 02:59:00,
2013-01-10 22:14:00,66.8,62.5,30.23,SE,126,0.0,0.0,86,0.00,,,0.01,WeatherDisplay:10.37,2013-01-11 03:14:00,
2013-01-10 22:29:00,66.3,62.3,30.23,SE,126,0.0,0.0,87,0.00,,,0.01,WeatherDisplay:10.37,2013-01-11 03:29:00,
2013-01-10 22:44:00,66.3,62.6,30.23,SE,126,0.0,0.0,88,0.00,,,0.01,WeatherDisplay:10.37,2013-01-11 03:44:00,
2013-01-10 22:59:00,66.0,62.3,30.22,SE,126,0.0,0.0,88,0.00,,,0.01,WeatherDisplay:10.37,2013-01-11 03:59:00,
2013-01-10 23:14:00,65.9,62.3,30.23,SE,126,0.0,0.0,88,0.00,,,0.01,WeatherDisplay:10.37,2013-01-11 04:14:00,
2013-01-10 23:29:00,65.5,61.9,30.22,SE,126,0.0,0.0,88,0.00,,,0.01,WeatherDisplay:10.37,2013-01-11 04:29:00,
2013-01-10 23:44:00,65.2,61.9,30.22,SE,126,0.0,0.0,89,0.00,,,0.01,WeatherDisplay:10.37,2013-01-11 04:44:00,
2013-01-10 23:59:00,64.8,61.5,30.22,SE,126,0.0,0.0,89,0.00,RA,,0.00,WeatherDisplay:10.37,2013-01-11 04:59:00,